Millinocket, ME

8:07 PM EST on February 13, 2016 (GMT -0500)
Millinocket Municipal

Weather History for KMLT - January, 2013

Change the Weather History Date:

Thursday, January 31, 2013

  Actual Average Record
Temperature  
Mean Temperature 38 °F 14 °F  
Max Temperature 54 °F 24 °F 54 °F (2013)
Min Temperature 22 °F 4 °F -24 °F (1994)
Degree Days  
Heating Degree Days 27 51  
Month to date heating degree days 1505 1582  
Since 1 July heating degree days 4379 4746  
Cooling Degree Days 0 0  
Month to date cooling degree days 0 0  
Year to date cooling degree days 0 0  
Moisture  
Dew Point 36 °F    
Average Humidity 74    
Maximum Humidity 100    
Minimum Humidity 47    
Precipitation  
Precipitation 0.68 in 0.07 in 0.90 in (1966)
Month to date precipitation 1.34 2.93  
Year to date precipitation 1.34 2.93  
Sea Level Pressure  
Sea Level Pressure 29.07 in    
Wind  
Wind Speed 12 mph (WSW)    
Max Wind Speed 25 mph    
Max Gust Speed 46 mph    
Visibility 4 miles    
Events Fog , Rain , Snow    
T = Trace of Precipitation, MM = Missing Value Source: NWS Daily Summary

Daily Weather History Graph

Daily Weather History Graph

Search for Another Location

Airport or City:

Trip Planner

Search our weather history database for the weather conditions in past years. The results will help you decide how hot, cold, wet, or windy it might be!

Date:

Astronomy

Jan. 31, 2013 Rise Set
Actual Time 6:57 AM EST 4:39 PM EST
Civil Twilight 6:25 AM EST 5:11 PM EST
Nautical Twilight 5:49 AM EST 5:47 PM EST
Astronomical Twilight 5:14 AM EST 6:22 PM EST
Moon 9:57 PM EST (1/31) 8:37 AM EST (1/31)
Length of Visible Light 10h 46m
Length of Day
9h 42m
Waning Gibbous, 80% of the Moon is Illuminated
Jan 31
Waning Gibbous
Feb 3
Last Quarter
Feb 10
New
Feb 17
First Quarter
Feb 25
Full

Hourly Weather History & Observations

Time (EST) Temp. Windchill Dew Point Humidity Pressure Visibility Wind Dir Wind Speed Gust Speed Precip Events Conditions
12:04 AM 46.4 °F 43.5 °F 44.6 °F 93% 29.35 in 0.2 mi SSE 5.8 mph - N/A Fog Fog
12:53 AM 50.0 °F - 48.0 °F 93% 29.33 in 1.0 mi South 9.2 mph - N/A   Overcast
1:02 AM 50.0 °F - 48.2 °F 94% 29.30 in 2.0 mi South 9.2 mph 18.4 mph N/A   Overcast
1:17 AM 51.8 °F - 50.0 °F 94% 29.30 in 3.0 mi SSW 8.1 mph - N/A   Overcast
1:43 AM 51.8 °F - 50.0 °F 94% 29.31 in 2.5 mi Variable 5.8 mph - N/A   Overcast
1:53 AM 51.1 °F - 50.0 °F 96% 29.33 in 1.8 mi Variable 6.9 mph - N/A   Overcast
2:02 AM 51.8 °F - 50.0 °F 94% 29.29 in 2.0 mi Variable 5.8 mph - N/A   Overcast
2:19 AM 51.8 °F - 50.0 °F 94% 29.29 in 1.2 mi Variable 4.6 mph - N/A   Overcast
2:53 AM 51.1 °F - 50.0 °F 96% 29.29 in 1.5 mi Variable 5.8 mph - 0.00 in Rain Light Rain
3:07 AM 51.8 °F - 50.0 °F 94% 29.25 in 1.2 mi Variable 3.5 mph - 0.01 in Rain Light Rain
3:21 AM 50.0 °F - 48.2 °F 94% 29.24 in 0.8 mi SE 4.6 mph - 0.03 in Rain Light Rain
4:05 AM 51.8 °F - 48.2 °F 88% 29.17 in 4.0 mi Variable 4.6 mph - 0.03 in Rain Light Rain
4:25 AM 51.8 °F - 50.0 °F 94% 29.15 in 4.0 mi SSE 9.2 mph 16.1 mph 0.06 in Rain Rain
4:53 AM 51.1 °F - 50.0 °F 96% 29.13 in 5.0 mi South 11.5 mph 20.7 mph 0.12 in Rain Rain
5:53 AM 52.0 °F - 50.0 °F 93% 29.06 in 7.0 mi SSE 10.4 mph 20.7 mph 0.05 in Rain Light Rain
6:53 AM 53.1 °F - 51.1 °F 93% 29.01 in 6.0 mi South 15.0 mph 27.6 mph 0.04 in Rain Light Rain
7:05 AM 53.6 °F - 51.8 °F 94% 28.99 in 5.0 mi South 11.5 mph 31.1 mph 0.01 in Rain Light Rain
7:31 AM 53.6 °F - 51.8 °F 94% 28.95 in 4.0 mi South 11.5 mph 26.5 mph 0.07 in Rain Rain
7:53 AM 53.1 °F - 51.1 °F 93% 28.95 in 4.0 mi South 17.3 mph 33.4 mph 0.11 in Rain Rain
8:53 AM 54.0 °F - 51.1 °F 90% 28.86 in 4.0 mi South 15.0 mph 34.5 mph 0.08 in Rain Light Rain
9:12 AM 53.6 °F - 51.8 °F 94% 28.82 in 1.8 mi South 15.0 mph 32.2 mph 0.01 in Rain Light Rain
9:21 AM 53.6 °F - 51.8 °F 94% 28.82 in 3.0 mi South 15.0 mph 39.1 mph 0.01 in Rain Light Rain
9:53 AM 54.0 °F - 52.0 °F 93% 28.84 in 10.0 mi South 11.5 mph 29.9 mph 0.01 in   Overcast
10:53 AM 54.0 °F - 51.1 °F 90% 28.76 in 10.0 mi SSE 12.7 mph 24.2 mph 0.00 in   Overcast
11:15 AM 53.6 °F - 51.8 °F 94% 28.74 in 10.0 mi South 9.2 mph 24.2 mph N/A   Overcast
11:39 AM 53.6 °F - 51.8 °F 94% 28.72 in 5.0 mi South 10.4 mph 26.5 mph 0.01 in Rain Light Rain
11:47 AM 53.6 °F - 51.8 °F 94% 28.71 in 1.8 mi SSW 9.2 mph 23.0 mph 0.03 in Rain Rain
11:53 AM 53.1 °F - 51.1 °F 93% 28.73 in 1.8 mi South 8.1 mph 23.0 mph 0.04 in Rain Light Rain
11:59 AM 51.8 °F - 48.2 °F 88% 28.76 in 3.0 mi West 20.7 mph 31.1 mph 0.00 in Rain Light Rain
12:06 PM 44.6 °F 36.4 °F 39.2 °F 81% 28.75 in 2.5 mi West 20.7 mph 31.1 mph 0.01 in Rain Rain
12:12 PM 42.8 °F 35.8 °F 39.2 °F 87% 28.78 in 1.2 mi West 13.8 mph 31.1 mph 0.05 in Rain Rain
12:24 PM 41.0 °F 34.3 °F 37.4 °F 87% 28.78 in 2.0 mi West 11.5 mph 26.5 mph 0.10 in Rain Rain
12:42 PM 42.8 °F 35.4 °F 35.6 °F 76% 28.78 in 5.0 mi West 15.0 mph 24.2 mph 0.12 in Rain Light Rain
12:53 PM 41.0 °F 32.5 °F 36.0 °F 82% 28.82 in 10.0 mi West 17.3 mph 32.2 mph 0.12 in Rain Light Rain
1:09 PM 39.2 °F 30.5 °F 33.8 °F 81% 28.82 in 4.0 mi West 16.1 mph 46.0 mph 0.02 in Rain Light Rain
1:35 PM 39.2 °F 32.5 °F 33.8 °F 81% 28.84 in 10.0 mi West 10.4 mph 23.0 mph 0.03 in Rain Light Rain
1:53 PM 39.9 °F 33.4 °F 34.0 °F 79% 28.89 in 10.0 mi West 10.4 mph 24.2 mph 0.03 in   Overcast
2:53 PM 37.9 °F 31.5 °F 27.0 °F 65% 28.96 in 10.0 mi West 9.2 mph 24.2 mph 0.00 in   Scattered Clouds
3:53 PM 39.0 °F 29.3 °F 23.0 °F 53% 29.00 in 10.0 mi West 19.6 mph 33.4 mph N/A   Mostly Cloudy
4:53 PM 37.9 °F 28.2 °F 19.9 °F 48% 29.05 in 10.0 mi WSW 18.4 mph 35.7 mph N/A   Overcast
5:53 PM 36.0 °F 28.0 °F 17.1 °F 46% 29.10 in 10.0 mi West 11.5 mph 25.3 mph N/A   Overcast
7:33 PM 30.2 °F 20.8 °F 23.0 °F 75% 29.15 in 2.5 mi West 11.5 mph 23.0 mph 0.00 in Snow Light Snow
7:44 PM 30.2 °F 23.4 °F 21.2 °F 69% 29.15 in 4.0 mi Variable 6.9 mph 17.3 mph 0.00 in Snow Light Snow
7:53 PM 32.0 °F 24.2 °F 19.9 °F 61% 29.17 in 10.0 mi WSW 9.2 mph 18.4 mph 0.00 in   Overcast
8:16 PM 30.2 °F 19.8 °F 19.4 °F 64% 29.17 in 2.0 mi West 13.8 mph 28.8 mph 0.00 in Snow Light Snow
8:21 PM 30.2 °F 19.8 °F 21.2 °F 69% 29.17 in 1.2 mi West 13.8 mph 23.0 mph 0.00 in Snow Light Snow
8:31 PM 30.2 °F 22.6 °F 21.2 °F 69% 29.17 in 2.0 mi West 8.1 mph 18.4 mph 0.00 in Snow Light Snow
8:38 PM 30.2 °F 22.6 °F 21.2 °F 69% 29.17 in 9.0 mi West 8.1 mph - 0.00 in   Overcast
8:51 PM 28.4 °F 17.5 °F 23.0 °F 80% 29.18 in 1.8 mi WNW 13.8 mph 25.3 mph 0.00 in Snow Light Snow
8:53 PM 28.0 °F 19.3 °F 23.0 °F 81% 29.21 in 1.2 mi West 9.2 mph 25.3 mph 0.00 in Snow Light Snow
9:03 PM 28.4 °F 18.0 °F 21.2 °F 74% 29.18 in 2.0 mi West 12.7 mph 23.0 mph 0.00 in Snow Light Snow
9:11 PM 30.2 °F 19.3 °F 17.6 °F 60% 29.19 in 7.0 mi West 15.0 mph 28.8 mph 0.00 in   Overcast
9:26 PM 28.4 °F 17.5 °F 19.4 °F 69% 29.20 in 1.8 mi West 13.8 mph 31.1 mph 0.00 in Snow Light Snow
9:38 PM 28.4 °F 18.0 °F 19.4 °F 69% 29.21 in 3.0 mi West 12.7 mph 23.0 mph 0.00 in Snow Light Snow
9:53 PM 27.0 °F 16.7 °F 19.0 °F 72% 29.24 in 6.0 mi West 11.5 mph 21.9 mph 0.00 in Snow Light Snow
10:20 PM 24.8 °F 10.7 °F 17.6 °F 74% 29.24 in 1.5 mi West 19.6 mph 33.4 mph 0.00 in Snow Light Snow
10:22 PM 24.8 °F 9.3 °F 19.4 °F 80% 29.24 in 0.8 mi West 24.2 mph 40.3 mph 0.00 in Snow Light Snow
10:29 PM 24.8 °F 11.9 °F 19.4 °F 80% 29.24 in 0.5 mi West 16.1 mph 40.3 mph 0.01 in Snow Snow
10:36 PM 24.8 °F 11.5 °F 17.6 °F 74% 29.25 in 1.5 mi West 17.3 mph 28.8 mph 0.01 in Snow Light Snow
10:38 PM 26.6 °F 14.7 °F 17.6 °F 69% 29.25 in 2.5 mi West 15.0 mph 28.8 mph 0.01 in Snow Light Snow
10:45 PM 26.6 °F 16.2 °F 15.8 °F 64% 29.26 in 4.0 mi West 11.5 mph 31.1 mph 0.01 in Snow Light Snow
10:53 PM 25.0 °F 11.7 °F 16.0 °F 69% 29.29 in 5.0 mi West 17.3 mph 32.2 mph 0.01 in Snow Light Snow
11:53 PM 21.9 °F 8.7 °F 6.1 °F 51% 29.35 in 10.0 mi West 15.0 mph 28.8 mph 0.00 in   Partly Cloudy